Terminal Aerodrome Forecast
Issued by NWS

Home | Current Version | Previous Version | Graphics & Text | Print | Product List | Glossary On
Versions: 1 2 3 4 5 6 7 8 9 10 11 12 13 14 15 16
445
FTUS45 KGGW 191351 AAA
TAFSDY
TAF AMD
KSDY 191351Z 1914/2012 03005KT P6SM SCT003 BKN100
      TEMPO 1914/1916 1/2SM FZFG BKN003
     FM191600 07005KT P6SM SCT003 BKN120
     FM191800 12006KT P6SM SCT060 BKN100
     FM200200 00000KT P6SM OVC080
     FM200600 26004KT P6SM VCSH OVC035=

USA.gov is the U.S. government's official web portal to all federal, state and local government web resources and services.